Location: Unspecified
(0.0000°N, 0.0000°E)
Time: 13:24:53
(UTC+01:00)

Palapa 6 Rocket - Visible Passes

Search period start: 27 January 2015 00:00
Search period end: 06 February 2015 00:00
Orbit: 486 x 1230 km, 22.8° (Epoch: 26 January)

Date Brightness Start Highest point End Pass type
(mag) Time Alt. Az. Time Alt. Az. Time Alt. Az.
27 Jan 4.9 05:44:08 15° SSW 05:44:39 16° SSW 05:47:04 10° SSE visible
27 Jan 6.3 20:19:07 10° NNW 20:22:43 13° N 20:26:12 10° NNE visible
28 Jan 5.2 05:32:22 14° SSW 05:32:22 14° SSW 05:34:24 10° S visible
28 Jan 6.3 20:06:52 10° NNW 20:10:12 13° N 20:13:27 10° NNE visible
29 Jan 5.5 05:20:34 12° SSW 05:20:34 12° SSW 05:21:42 10° S visible
29 Jan 6.3 19:54:37 10° NNW 19:57:41 12° N 20:00:43 10° NNE visible
29 Jan 6.6 21:44:55 10° NNW 21:45:08 10° NNW 21:45:08 10° NNW visible
30 Jan 5.7 05:08:44 10° S 05:08:44 10° S 05:08:56 10° S visible
30 Jan 6.3 19:42:21 10° NNW 19:45:10 12° N 19:48:00 10° NNE visible
30 Jan 6.4 21:31:56 10° NNW 21:33:21 13° NNW 21:33:21 13° NNW visible
31 Jan 6.3 19:30:04 10° NNW 19:32:39 12° N 19:35:19 10° NNE visible
31 Jan 6.2 21:18:58 10° NNW 21:21:36 15° N 21:21:36 15° N visible
01 Feb 6.0 21:06:03 10° NNW 21:09:53 17° N 21:09:53 17° N visible
02 Feb 5.8 20:53:09 10° NNW 20:58:13 20° NNE 20:58:13 20° NNE visible
03 Feb 5.7 20:40:16 10° NNW 20:45:54 21° NNE 20:46:36 21° NNE visible
03 Feb 6.8 22:28:32 10° NW 22:28:39 10° NW 22:28:39 10° NW visible
04 Feb 5.6 20:27:26 10° NNW 20:33:15 23° NNE 20:35:04 22° NE visible
04 Feb 6.4 22:15:39 10° NW 22:17:06 16° NW 22:17:06 16° NW visible
05 Feb 5.5 20:14:38 10° NNW 20:20:34 25° NNE 20:23:36 20° NE visible
05 Feb 6.0 22:02:48 10° NW 22:05:38 24° NW 22:05:38 24° NW visible
